Regional Weather Roundup
Issued by NWS

Home | Current Version | Previous Version | Text Only | Print | Product List | Glossary On
Versions: 1 2 3 4 5 6 7 8 9 10 11 12 13 14 15 16 17 18 19 20 21 22 23 24 25 26 27 28 29 30 31 32 33 34 35 36 37 38 39 40 41 42 43 44 45 46 47 48 49 50
000
ASUS43 KLMK 061010
RWRKY
KENTUCKY REGIONAL WEATHER ROUNDUP
NATIONAL WEATHER SERVICE LOUISVILLE KY
500 AM EST TUE DEC 06 2016

NOTE "FAIR" INDICATES FEW OR NO CLOUDS BELOW 12,000 FEET
WITH NO SIGNIFICANT WEATHER AND/OR OBSTRUCTIONS TO VISIBILITY.

KYZ001>023-026-027-061>063-070>075-061100-
WESTERN AND SOUTH CENTRAL KENTUCKY

CITY           SKY/WX    TMP DP  RH WIND       PRES   REMARKS
PADUCAH        HVY RAIN  42  39  89 N9        29.69R FOG
HENDERSON      CLOUDY    43  37  81 NE7       29.68F
OWENSBORO      RAIN      43  42  97 E9        29.68F FOG
HOPKINSVILLE   CLOUDY    45  45 100 NE6       29.61F
BOWLING GREEN  CLOUDY    47  45  93 E5        29.67F
GLASGOW        RAIN     N/A N/A N/A E6        29.66F
$$

KYZ024-025-028>034-038-045-046-053-061100-
NORTH CENTRAL KENTUCKY

CITY           SKY/WX    TMP DP  RH WIND       PRES   REMARKS
LOUISVILLE/SDF HVY RAIN  43  40  89 N6        29.74F FOG
LOUISVILLE/LOU RAIN      42  40  92 NE5       29.75F FOG
FORT KNOX      LGT RAIN  42  41  99 NE8       29.69F FOG
$$

KYZ035>037-039>044-047>052-055>060-089>105-061100-
NORTHEAST KENTUCKY

CITY           SKY/WX    TMP DP  RH WIND       PRES   REMARKS
LEXINGTON      RAIN      42  40  92 E7        29.72F FOG
COVINGTON      RAIN      39  36  89 E12       29.76F FOG     WCI  32
FRANKFORT      RAIN      41  38  89 N6        29.73F FOG
$$

KYZ054-064>069-076>088-106>120-061100-
SOUTHEAST KENTUCKY

CITY           SKY/WX    TMP DP  RH WIND       PRES   REMARKS
JACKSON        RAIN      44  41  89 VRB5      29.75F
LONDON         LGT RAIN  46  42  86 E5        29.71F
SOMERSET       RAIN      45  45 100 CALM      29.72S
MIDDLESBORO    LGT RAIN  50  49  94 CALM      29.77F
MONTICELLO     LGT RAIN  52  49  89 E8        29.71F
$$





USA.gov is the U.S. government's official web portal to all federal, state and local government web resources and services.